Back to catalog

ATS 6

AliveScienceGEO
NORAD 7318·PAYLOAD·🇺🇸 United States

Launched May 30, 1974 from Cape Canaveral Space Force Station

Loading…

TLE

FreshSource: Space-Track

Epoch: Sep 14, 2026, 13:12 UTC

1 07318U 74039A   26257.55061745 -.00000164  00000-0  00000-0 0  9999
2 07318   1.7425 243.3097 0033217 349.9525 194.7696  1.01979890122912

Track ATS 6 in real time with AllMySat

Download on the App Store